Youngstown, OH

3:45 PM EDT on August 17, 2017 (GMT -0400)
Youngstown-Warren Regional

Weather History for KYNG - January, 2012

Change the Weather History Date:

Thursday, January 19, 2012

  Actual Average Record
Temperature  
Mean Temperature 21 °F 26 °F  
Max Temperature 27 °F 32 °F 61 °F (1933)
Min Temperature 15 °F 19 °F -22 °F (1994)
Degree Days  
Heating Degree Days 44 40  
Month to date heating degree days 667 747  
Since 1 July heating degree days 2672 3153  
Cooling Degree Days 0 0  
Month to date cooling degree days 0 0  
Year to date cooling degree days 0 0  
Moisture  
Dew Point 17 °F    
Average Humidity 77    
Maximum Humidity 92    
Minimum Humidity 62    
Precipitation  
Precipitation 0.19 in 0.08 in 0.69 in (1952)
Month to date precipitation 2.53 1.63  
Year to date precipitation 2.53 1.63  
Snow  
Snow 2.80 in 0.50 in - ()
Month to date snowfall 19.6 10.3  
Since 1 July snowfall 29.7 29.7  
Snow Depth 3.00 in    
Sea Level Pressure  
Sea Level Pressure 29.90 in    
Wind  
Wind Speed 11 mph (SW)    
Max Wind Speed 22 mph    
Max Gust Speed 28 mph    
Visibility 5 miles    
Events Snow    
T = Trace of Precipitation, MM = Missing Value Source: NWS Daily Summary

Daily Weather History Graph

Daily Weather History Graph

Search for Another Location

Airport or City:

Trip Planner

Search our weather history database for the weather conditions in past years. The results will help you decide how hot, cold, wet, or windy it might be!

Date:

Astronomy

Jan. 19, 2012 Rise Set
Actual Time 7:44 AM EST 5:22 PM EST
Civil Twilight 7:14 AM EST 5:52 PM EST
Nautical Twilight 6:40 AM EST 6:26 PM EST
Astronomical Twilight 6:07 AM EST 6:59 PM EST
Moon 4:19 AM EST (1/19) 1:52 PM EST (1/19)
Length of Visible Light 10h 38m
Length of Day
9h 38m
Waning Crescent, 16% of the Moon is Illuminated
Jan 19
Waning Crescent
Jan 23
New
Jan 30
First Quarter
Feb 7
Full
Feb 14
Last Quarter

Hourly Weather History & Observations

Time (EST) Temp. Windchill Dew Point Humidity Pressure Visibility Wind Dir Wind Speed Gust Speed Precip Events Conditions
12:51 AM 18.0 °F 8.7 °F 10.9 °F 74% 30.12 in 10.0 mi South 6.9 mph - N/A   Overcast
1:51 AM 18.0 °F 6.9 °F 10.9 °F 74% 30.10 in 10.0 mi SSE 9.2 mph - N/A   Overcast
2:51 AM 18.0 °F 7.7 °F 10.9 °F 74% 30.08 in 10.0 mi SSE 8.1 mph - N/A   Mostly Cloudy
3:51 AM 18.0 °F 8.7 °F 10.9 °F 74% 30.06 in 10.0 mi SSE 6.9 mph - N/A   Mostly Cloudy
4:51 AM 18.0 °F 8.7 °F 10.9 °F 74% 30.03 in 10.0 mi SSE 6.9 mph - N/A   Mostly Cloudy
5:51 AM 18.0 °F 6.9 °F 10.9 °F 74% 30.01 in 10.0 mi SSE 9.2 mph - N/A   Scattered Clouds
6:51 AM 19.0 °F 7.5 °F 12.9 °F 77% 29.99 in 10.0 mi South 10.4 mph - N/A   Mostly Cloudy
7:51 AM 21.0 °F 9.9 °F 12.9 °F 71% 29.96 in 10.0 mi SSE 10.4 mph - N/A   Overcast
8:51 AM 23.0 °F 10.6 °F 14.0 °F 68% 29.97 in 10.0 mi South 13.8 mph 19.6 mph N/A   Overcast
9:51 AM 24.1 °F 12.0 °F 15.1 °F 69% 29.91 in 10.0 mi South 13.8 mph 21.9 mph N/A   Overcast
10:51 AM 25.0 °F 13.6 °F 15.1 °F 66% 29.91 in 10.0 mi South 12.7 mph 23.0 mph N/A   Overcast
11:23 AM 26.6 °F 13.8 °F 15.8 °F 64% 29.83 in 1.5 mi South 17.3 mph 25.3 mph 0.00 in Snow Light Snow
11:27 AM 26.6 °F 15.7 °F 17.6 °F 69% 29.83 in 1.0 mi South 12.7 mph 25.3 mph 0.00 in Snow Light Snow
11:35 AM 24.8 °F 11.1 °F 17.6 °F 74% 29.83 in 0.8 mi SSW 18.4 mph 23.0 mph 0.00 in Snow Light Snow
11:51 AM 25.0 °F 12.6 °F 19.0 °F 78% 29.88 in 0.5 mi SSW 15.0 mph 23.0 mph 0.00 in Snow Snow
12:31 PM 24.8 °F 13.4 °F 21.2 °F 86% 29.81 in 0.5 mi SSW 12.7 mph 20.7 mph 0.01 in Snow Snow
12:51 PM 25.0 °F 14.8 °F 21.9 °F 88% 29.86 in 0.5 mi SSW 10.4 mph 21.9 mph N/A Snow Snow
1:42 PM 26.6 °F 14.7 °F 21.2 °F 80% 29.79 in 1.0 mi SSW 15.0 mph 24.2 mph 0.02 in Snow Light Snow
1:51 PM 26.6 °F 16.2 °F 21.2 °F 80% 29.78 in 1.8 mi SSW 11.5 mph 24.2 mph N/A Snow Light Snow
1:59 PM 26.6 °F 15.7 °F 21.2 °F 80% 29.78 in 2.0 mi SSW 12.7 mph - 0.00 in Snow Light Snow
2:27 PM 26.6 °F 15.2 °F 21.2 °F 80% 29.77 in 2.5 mi SW 13.8 mph 25.3 mph 0.00 in Snow Light Snow
2:33 PM 26.6 °F 16.8 °F 21.2 °F 80% 29.77 in 1.0 mi SW 10.4 mph 19.6 mph 0.00 in Snow Light Snow
2:41 PM 26.6 °F 14.3 °F 21.2 °F 80% 29.77 in 0.8 mi SW 16.1 mph 19.6 mph 0.00 in Snow Light Snow
2:51 PM 27.0 °F 17.3 °F 21.9 °F 81% 29.82 in 0.5 mi SW 10.4 mph - 0.00 in Snow Snow
3:00 PM 26.6 °F 17.5 °F 23.0 °F 86% 29.77 in 0.5 mi SW 9.2 mph - 0.00 in Snow Snow
3:37 PM 26.6 °F 17.5 °F 24.8 °F 93% 29.77 in 0.5 mi SSW 9.2 mph - 0.01 in Snow Snow
3:51 PM 27.0 °F 17.3 °F 24.1 °F 89% 29.82 in 0.5 mi SSW 10.4 mph - N/A Snow Snow
4:51 PM 27.0 °F 17.3 °F 25.0 °F 92% 29.85 in 0.5 mi SW 10.4 mph - 0.04 in Snow Snow
5:09 PM 26.6 °F 17.5 °F 24.8 °F 93% 29.81 in 0.2 mi West 9.2 mph - 0.03 in Snow Heavy Snow
5:39 PM 26.6 °F 16.2 °F 23.0 °F 86% 29.84 in 0.5 mi West 11.5 mph 24.2 mph 0.07 in Snow Snow
5:51 PM 26.1 °F 15.0 °F 23.0 °F 88% 29.89 in 0.5 mi WNW 12.7 mph 19.6 mph N/A Snow Light Snow
6:13 PM 24.8 °F 11.5 °F 21.2 °F 86% 29.86 in 1.0 mi West 17.3 mph 27.6 mph 0.01 in Snow Light Snow
6:36 PM 24.8 °F 12.4 °F 19.4 °F 80% 29.87 in 5.0 mi West 15.0 mph 21.9 mph 0.01 in Snow Light Snow
6:51 PM 24.1 °F 13.1 °F 19.0 °F 81% 29.94 in 8.0 mi West 11.5 mph 20.7 mph 0.01 in Snow Light Snow
7:51 PM 21.0 °F 7.1 °F 10.9 °F 65% 29.99 in 9.0 mi WNW 16.1 mph 26.5 mph 0.00 in Snow Light Snow
8:10 PM 19.4 °F 5.5 °F 8.6 °F 63% 29.94 in 10.0 mi WNW 15.0 mph 21.9 mph 0.00 in   Scattered Clouds
8:51 PM 19.0 °F 7.5 °F 9.0 °F 65% 30.01 in 9.0 mi West 10.4 mph - 0.00 in Snow Light Snow
9:51 PM 19.0 °F 8.2 °F 8.1 °F 62% 30.03 in 9.0 mi WNW 9.2 mph 17.3 mph 0.00 in Snow Light Snow
10:51 PM 17.1 °F 1.0 °F 6.1 °F 62% 30.05 in 10.0 mi NW 18.4 mph 23.0 mph 0.00 in   Overcast
11:51 PM 15.1 °F 4.2 °F 6.1 °F 68% 30.09 in 9.0 mi WNW 8.1 mph - 0.00 in Snow Light Snow